Location: Alvediston
(51.0078°N, 2.0364°W)
Time: 11:44:11
(UTC+00:00)

USA 238 DEB - Pass Details

Date: 27 February 2020
Orbit: 1018 x 1195 km, 63.4° (Epoch: 05 April)

Event Time Altitude Azimuth Distance (km) Brightness Sun altitude
Rises 19:56:03 0° 315° (NW) 3,925 7.6 -21.3°
Reaches altitude 10° 19:58:41 10° 315° (NW) 2,989 6.9 -21.7°
Maximum altitude 20:05:51 85° 229° (SW) 1,159 3.8 -22.8°
Enters shadow 20:09:21 35° 143° (SE) 1,787 4.4 -23.3°
